ARIANE 2 DEB, 33548

Orbit data source: Space-Track

ARIANE 2 DEB, 33548 is space debris in HEO originally from a launch on Fri, 27 Jan 1989 UTC launched from the French Guiana (FRGUI). Debris objects in space refer to the collection of defunct objects orbiting the Earth. Examples of debris include non-operational satellites, rocket bodies, and fragments generated from explosions, collisions, or faulty payload assembly.

Loading next visibility...
Identifier
33548, 1989-006AQ
Orbit
HEO
Country
Flag of FRFR
Related business
Manufacturer
EADS/LV
Mission
Spacecraft
Bus & Motor
Unknown
Mass
Unknown
Launch date (UTC)
1989-01-27 (37 years ago)
Launch vehicle
Unknown
Launch site
French Guiana (FRGUI)
Object type
Payload
Rocket body
Debris
Shape & HBR
Unknown shape, 0.2 m
Radar Cross Section
Medium (>0.1 m² and <1 m²)

Expand to show TLE details & history
Last TLE update: 2 weeks ago

TLE from 2 weeks ago
0 ARIANE 2 DEB
1 33548U 89006AQ  26090.95758424 -.00000247  00000-0  00000-0 0  9991
2 33548  10.1113  13.8563 6924200 197.3047 115.4206  2.22279927166275
Epoch: 2026-03-31T22:58Z
TLE epoch observation values (Epoch: 2026-03-31T22:58:55.278Z)
Latitude
-0.00005°
Longitude
-160.25031°
Altitude
31,731.661 km
Speed
2.202 km/s
True Right ascension
00h 55m 13s
True Declination
0° 00' 00"
Sunlit
Object was in daylight at epoch
Visualization orbit readout
Latitude
Unknown
Longitude
Unknown
Altitude
Unknown
Speed
Unknown
Apparent Right ascension
Unknown
Apparent Declination
Unknown
Sunlit
N/A
Visualization observer readout
Local Sidereal Time
19:24:09
Azimuth
Unknown
Elevation
Unknown
Doppler factor
Unknown
Orbital elements
Apogee altitude
35,603.148 km
Perigee altitude
1,251.532 km
Semi-major axis
24,805.477 km
Eccentricity
0.69242
Inclination
10.1113°
RAAN
13.8563°
Arg. of periapsis
197.3047°
True anomaly
162.64326°
Mean anomaly
115.4206°
Eccentric anomaly
140.60137°
Mean motion
0.55555 °/min
Orbital period
648.01 mins
BSTAR
0
Loading maneuver chart data...
Computing Atmospheric mass density...
Loading historical data...
Loading historical data...
Loading historical data...
Loading historical data...
Loading historical data...
Loading historical data...
Loading historical data...

Documentation

Showing up to 5 results
|